[[[{"header":{"parameterUnit":"kt","parameterCategory":2,"dx":1,"dy":1,"la1":30.253999710083008,"la2":30.299108505249023,"lo1":-89.0895004272461,"lo2":-89.04439544677734,"nx":28,"ny":28,"refTime":"2022-09-27T15:00:00:Z","depth":0,"parameterNumber":1,"parameterNumberName":"U-component_of_WINDS"},"data":[-7.1353,-7.1573,-7.1546,-7.1784,-7.1799,-7.1958,-7.2006,-7.2064,-7.2102,-7.2286,-7.2387,-7.238,-7.2407,-7.252,-7.2627,-7.2621,-7.2671,-7.2768,-7.2747,-7.2332,-7.2274,-7.2217,-7.2166,-7.2778,-7.2779,-7.3182,-7.3186,-7.3189,-7.1051,-7.1069,-7.1186,-7.1282,-7.1383,-7.1271,-7.1337,-7.1429,-7.1573,-7.1622,-7.1719,-7.1878,-7.2,-7.1993,-7.2105,-7.2207,-7.2163,-7.224,-7.2236,-7.2243,-7.1797,-7.1742,-7.2274,-7.2274,-7.2274,-7.2274,-7.2274,-7.2274,-7.0495,-7.0628,-7.067,-7.0797,-7.0837,-7.0901,-7.1022,-7.1011,-7.1125,-7.124,-7.1182,-7.1344,-7.1388,-7.1508,-7.1541,-7.1666,-7.1576,-7.1652,-7.1673,-7.1695,-7.1725,-7.1156,-7.1683,-7.1681,-7.1679,-7.1678,-7.1677,0,-7.0081,-7.0049,-7.016,-7.0263,-7.0354,-7.0431,-7.0496,-7.057,-7.0491,-7.0588,-7.0727,-7.0802,-7.0949,-7.1077,-7.1174,-7.1193,-7.1091,-7.1074,-7.1128,-7.1164,-7.1182,-7.1181,-7.0462,-7.1062,-7.1056,-7.1052,-7.1049,-7.1047,-6.9524,-6.9681,-6.971,-6.9792,-6.982,-6.9953,-7.0026,-6.9944,-7.0025,-7.0093,-7.0213,-7.0338,-7.0436,-7.0661,-7.0647,-7.0757,-7.071,-7.0943,-7.0726,-7.0751,-7.0721,-7.0716,-7.0732,-7.099,-7.0997,-7.1003,-7.1008,0,-6.9214,-6.9167,-6.9401,-6.9414,-6.9421,-6.959,-6.9601,-6.9729,-6.9703,-6.9877,-6.9912,-6.9874,-7.0011,-6.9958,-7.0103,-7.0072,-7.0351,-7.0298,-7.0336,-7.0325,-7.0533,-7.0517,-7.1205,-7.1292,-7.0649,-7.0655,-7.066,0,-6.8724,-6.8932,-6.8851,-6.8989,-6.9217,-6.913,-6.9358,-6.9359,-6.9395,-6.953,-6.9402,-6.9532,-6.9444,-6.9566,-6.952,-6.9737,-6.9762,-6.9753,-6.9741,-6.977,-6.9772,-6.9818,-6.9791,-6.9696,-6.9692,-6.9689,-6.9687,0,-6.8249,-6.8447,-6.867,-6.8708,-6.8744,-6.885,-6.8869,-6.8908,-6.8981,-6.9065,-6.9111,-6.9215,-6.9275,-6.9357,-6.9299,-6.9154,-6.956,-6.935,-6.9552,-6.9555,-6.9651,-6.9648,-7.0263,-6.9682,-6.9681,-6.968,-6.9679,0,-6.7848,-6.7936,-6.8264,-6.8291,-6.8347,-6.8492,-6.859,-6.8702,-6.8753,-6.8733,-6.8799,-6.871,-6.8891,-6.8687,-6.8937,-6.8766,-6.8832,-6.8838,-6.8851,-6.8871,-6.8646,-6.9009,-6.9594,-6.9657,-6.888,-6.8873,-6.8867,0,-6.732,-6.7638,-6.7567,-6.788,-6.8021,-6.787,-6.8029,-6.8078,-6.8065,-6.8181,-6.8165,-6.83,-6.8135,-6.8171,-6.83,-6.8292,-6.8513,-6.8259,-6.8434,-6.8442,-6.8433,-6.8968,-6.9073,-6.947,-6.8781,-6.879,-6.8797,0,-6.6906,-6.6947,-6.7009,-6.705,-6.7099,-6.7215,-6.7398,-6.7511,-6.7594,-6.766,-6.7814,-6.7997,-6.7883,-6.7942,-6.7881,-6.8019,-6.836,-6.7878,-6.7878,-6.7972,-6.8731,-6.883,-6.8897,-6.8288,-6.8299,-6.8307,-6.8728,0,-6.6322,-6.6474,-6.6635,-6.6728,-6.6808,-6.7001,-6.6946,-6.7037,-6.697,-6.6953,-6.7175,-6.7201,-6.7318,-6.7377,-6.7313,-6.7645,-6.7583,-6.7459,-6.7262,-6.7612,-6.775,-6.7806,-6.7061,-6.7054,-6.7049,-6.7045,0,0,-6.5832,-6.6049,-6.5965,-6.614,-6.6204,-6.6045,-6.6257,-6.6299,-6.6392,-6.644,-6.6327,-6.6594,-6.6621,-6.6898,-6.7002,-6.7047,-6.7103,-6.6984,-6.7444,-6.7489,-6.753,-6.7679,-6.7738,-6.7036,-6.7034,-6.7032,-6.703,0,-6.5609,-6.5638,-6.5846,-6.5887,-6.5944,-6.5915,-6.5965,-6.5994,-6.5994,-6.6209,-6.6079,-6.6205,-6.642,-6.6467,-6.652,-6.6946,-6.6843,-6.6984,-6.7235,-6.7394,-6.7445,-6.7491,-6.7648,-6.7704,-6.7018,-6.7019,-6.7019,0,-6.5197,-6.5218,-6.5312,-6.5447,-6.5483,-6.563,-6.5408,-6.5573,-6.5682,-6.5503,-6.5721,-6.5729,-6.5787,-6.6053,-6.617,-6.6073,-6.6611,-6.6429,-6.6461,-6.6475,-6.6626,-6.6688,-6.6743,-6.6016,-6.6013,-6.601,0,0,-6.5012,-6.5152,-6.515,-6.5395,-6.5427,-6.5387,-6.5459,-6.5401,-6.5455,-6.5478,-6.5487,-6.5545,-6.5669,-6.5753,-6.5866,-6.6165,-6.6173,-6.6308,-6.6356,-6.6394,-6.643,-6.6591,-6.6653,-6.5998,-6.5998,-6.5997,0,0,-6.4924,-6.4932,-6.4855,-6.5131,-6.5188,-6.5203,-6.5356,-6.5262,-6.5358,-6.5331,-6.524,-6.5252,-6.5499,-6.5513,-6.5354,-6.5796,-6.5601,-6.5638,-6.578,-6.5839,-6.5885,-6.588,-6.5134,0,0,0,0,0,-6.4669,-6.493,-6.486,-6.4898,-6.5069,-6.5242,-6.5263,-6.5194,-6.5058,-6.518,-6.5172,-6.5055,-6.5409,-6.5266,-6.5306,-6.5486,-6.5839,-6.5867,-6.5894,-6.6147,-6.6209,-6.6261,0,0,0,0,0,0,-6.4684,-6.4731,-6.4853,-6.488,-6.4918,-6.5231,-6.4986,-6.4974,-6.5043,-6.5018,-6.506,-6.5056,-6.5001,-6.5241,-6.5278,-6.5451,-6.5122,-6.585,-6.5874,-6.5896,-6.6168,-6.6219,-6.6262,0,0,0,0,0,-6.4695,-6.4733,-6.5025,-6.4876,-6.4909,-6.4879,-6.4975,-6.4964,-6.5016,-6.5005,-6.4998,-6.4958,-6.5008,-6.5034,-6.5263,-6.5436,-6.5096,-6.511,-6.5866,-6.5885,-6.5902,-6.6193,0,0,0,0,0,0,-6.4703,-6.4723,-6.503,-6.5037,-6.4773,-6.486,-6.4872,-6.4955,-6.4997,-6.4993,-6.4897,-6.4877,-6.5016,-6.5035,-6.5056,-6.5434,-6.5074,-6.5089,-6.5098,-6.588,-6.5895,-6.5908,0,0,0,0,0,0,-6.4702,-6.4731,-6.5034,-6.4907,-6.4899,-6.4843,-6.4854,-6.5037,-6.5,-6.4886,-6.487,-6.4888,-6.4985,-6.5037,-6.5053,-6.5342,-6.5058,-6.5072,-6.5081,-6.5087,-6.5892,-6.5904,0,0,0,0,0,0,-6.4713,-6.4737,-6.4904,-6.4899,-6.4891,-6.4969,-6.5004,-6.5183,-6.4891,-6.4887,-6.4863,-6.485,-6.4991,-6.5004,-6.5051,-6.5334,-6.534,-6.5058,-6.5068,-6.5074,-6.5079,0,0,0,0,0,0,0,-6.4722,-6.4575,-6.4986,-6.4892,-6.4885,-6.5106,-6.5108,-6.511,-6.4888,-6.4877,-6.4866,-6.4855,-6.498,-6.4995,-6.501,-6.5329,0,0,-6.5057,-6.5064,0,0,0,0,0,0,0,0,-6.4563,-6.4572,-6.4986,-6.4988,-6.4989,-6.5106,-6.5108,-6.5109,-6.4886,-6.4877,-6.4868,-6.486,-6.4984,-6.4996,-6.5008,0,0,0,0,0,0,0,0,0,0,0,0,0,0,0,-6.4986,-6.4988,0,-6.5106,-6.5108,-6.5109,-6.4885,-6.4877,-6.487,-6.4863,-6.4987,-6.4997,-6.5008,0,0,0,0,0,0,0,0,0,0,0,0,0,0,0,0,0,0,0,0,0,0,0,0,0,0,0,0,0,0,0,0,0,0,0,0,0,0,0,0,0,0,0,0,0,0,0,0,0,0,0,0,0,0,0,0,0,0,0,0,0,0,0,0,0,0,0,0,0]}],[{"header":{"parameterUnit":"kt","parameterCategory":2,"dx":1,"dy":1,"la1":30.253999710083008,"la2":30.299108505249023,"lo1":-89.0895004272461,"lo2":-89.04439544677734,"nx":28,"ny":28,"refTime":"2022-09-27T15:00:00:Z","depth":0,"parameterNumber":2,"parameterNumberName":"V-component_of_WINDS"},"data":[-15.2679,-15.2941,-15.2912,-15.3194,-15.3214,-15.34,-15.3456,-15.3525,-15.357,-15.3784,-15.39,-15.3892,-15.3921,-15.4048,-15.4169,-15.4161,-15.4215,-15.433,-15.4301,-15.3819,-15.375,-15.3684,-15.3622,-15.4342,-15.4343,-15.4805,-15.4809,-15.4813,-15.2327,-15.2352,-15.2494,-15.261,-15.2729,-15.2601,-15.268,-15.2787,-15.2955,-15.3013,-15.3126,-15.3309,-15.3448,-15.3437,-15.3564,-15.3679,-15.3624,-15.3716,-15.3707,-15.3714,-15.3197,-15.3132,-15.3759,-15.3759,-15.3759,-15.3758,-15.3758,-15.3758,-15.1679,-15.1837,-15.189,-15.2043,-15.2092,-15.2169,-15.2312,-15.23,-15.2434,-15.2567,-15.25,-15.2688,-15.2735,-15.2871,-15.2906,-15.3048,-15.2939,-15.3028,-15.3051,-15.3075,-15.3108,-15.2446,-15.3067,-15.3065,-15.3063,-15.3062,-15.306,0,-15.1195,-15.116,-15.1293,-15.1418,-15.1526,-15.1619,-15.1697,-15.1784,-15.1691,-15.1806,-15.1967,-15.2054,-15.2222,-15.2368,-15.2477,-15.2495,-15.2369,-15.2352,-15.2413,-15.2451,-15.247,-15.2464,-15.1624,-15.2334,-15.2328,-15.2323,-15.232,-15.2317,-15.0539,-15.0727,-15.0767,-15.0864,-15.09,-15.1058,-15.1144,-15.1048,-15.1144,-15.1223,-15.1364,-15.1509,-15.162,-15.1879,-15.1857,-15.1981,-15.1921,-15.2197,-15.1939,-15.1967,-15.1926,-15.1918,-15.1935,-15.2249,-15.2258,-15.2265,-15.2271,0,-15.0172,-15.0122,-15.0401,-15.042,-15.0431,-15.0631,-15.0644,-15.0795,-15.0765,-15.0968,-15.1009,-15.0961,-15.1119,-15.1052,-15.1217,-15.1176,-15.1498,-15.1436,-15.1481,-15.1466,-15.1706,-15.1685,-15.2496,-15.2597,-15.1849,-15.1856,-15.1862,0,-14.9593,-14.9842,-14.9751,-14.9916,-15.0188,-15.0086,-15.0357,-15.0358,-15.0399,-15.0557,-15.0405,-15.0556,-15.0446,-15.0586,-15.0527,-15.0778,-15.0808,-15.0792,-15.0774,-15.0808,-15.081,-15.0856,-15.0822,-15.0723,-15.0719,-15.0716,-15.0712,0,-14.9026,-14.9268,-14.9536,-14.9583,-14.9627,-14.9754,-14.9777,-14.9821,-14.9906,-15.0004,-15.0058,-15.0179,-15.0245,-15.0339,-15.0263,-15.0091,-15.0567,-15.0315,-15.0551,-15.0554,-15.0661,-15.0656,-15.139,-15.0707,-15.0706,-15.0705,-15.0703,0,-14.855,-14.8658,-14.9054,-14.9086,-14.9153,-14.9328,-14.9442,-14.9577,-14.9634,-14.9609,-14.9685,-14.9574,-14.9788,-14.9542,-14.9834,-14.9632,-14.9705,-14.9708,-14.9724,-14.974,-14.9468,-14.9893,-15.0597,-15.0669,-14.9753,-14.9745,-14.9738,0,-14.7916,-14.8302,-14.8218,-14.8595,-14.8763,-14.8582,-14.8773,-14.8829,-14.8812,-14.8948,-14.8925,-14.9082,-14.8885,-14.8924,-14.9077,-14.906,-14.9323,-14.9022,-14.9218,-14.9226,-14.9211,-14.9858,-14.9981,-15.045,-14.9636,-14.9646,-14.9654,0,-14.7418,-14.7472,-14.7546,-14.7594,-14.7655,-14.7794,-14.8014,-14.8148,-14.8245,-14.8323,-14.8504,-14.8721,-14.8581,-14.8648,-14.857,-14.8733,-14.9142,-14.856,-14.856,-14.8668,-14.9578,-14.9694,-14.9773,-14.9053,-14.9065,-14.9075,-14.9573,0,-14.6712,-14.6898,-14.7094,-14.7207,-14.7304,-14.7536,-14.7469,-14.7578,-14.7495,-14.7471,-14.7734,-14.7761,-14.7895,-14.7966,-14.7885,-14.8281,-14.8204,-14.8053,-14.7809,-14.8234,-14.8397,-14.8463,-14.7573,-14.7566,-14.7559,-14.7554,0,0,-14.6118,-14.6383,-14.6284,-14.6496,-14.6572,-14.638,-14.6634,-14.6684,-14.6792,-14.6848,-14.6711,-14.7023,-14.7051,-14.7378,-14.7505,-14.7559,-14.7622,-14.7477,-14.8032,-14.8086,-14.8136,-14.8311,-14.8381,-14.7543,-14.754,-14.7538,-14.7536,0,-14.5847,-14.5886,-14.614,-14.6189,-14.6258,-14.622,-14.6282,-14.6315,-14.6311,-14.6569,-14.6405,-14.6554,-14.6806,-14.6857,-14.6916,-14.7435,-14.7302,-14.7481,-14.7785,-14.797,-14.8033,-14.8087,-14.8272,-14.834,-14.752,-14.7521,-14.7522,0,-14.5344,-14.5371,-14.5487,-14.5653,-14.5696,-14.5873,-14.5602,-14.5801,-14.593,-14.5706,-14.5966,-14.5971,-14.6033,-14.6352,-14.6491,-14.6371,-14.7015,-14.6799,-14.6837,-14.6851,-14.7028,-14.7103,-14.7169,-14.6291,-14.6287,-14.6284,0,0,-14.5119,-14.5292,-14.5289,-14.5589,-14.5628,-14.5576,-14.5663,-14.559,-14.5652,-14.5678,-14.5682,-14.5746,-14.589,-14.5988,-14.612,-14.6479,-14.6483,-14.6651,-14.6708,-14.6756,-14.6797,-14.6986,-14.706,-14.6269,-14.6268,-14.6268,0,0,-14.501,-14.5021,-14.4927,-14.5267,-14.5334,-14.5349,-14.5534,-14.5418,-14.553,-14.5496,-14.5377,-14.5389,-14.5684,-14.5696,-14.5504,-14.6032,-14.5792,-14.5837,-14.6014,-14.6086,-14.6143,-14.6135,-14.5228,0,0,0,0,0,-14.4699,-14.5019,-14.4934,-14.4981,-14.5189,-14.5397,-14.5422,-14.5334,-14.5166,-14.5314,-14.5299,-14.5151,-14.5568,-14.5394,-14.5441,-14.5657,-14.6075,-14.6109,-14.6142,-14.6454,-14.6531,-14.6595,0,0,0,0,0,0,-14.4717,-14.4775,-14.4925,-14.4956,-14.5001,-14.5384,-14.5081,-14.5066,-14.5148,-14.5116,-14.5159,-14.5152,-14.5078,-14.5364,-14.5408,-14.5615,-14.5213,-14.6088,-14.6118,-14.6144,-14.648,-14.6543,-14.6596,0,0,0,0,0,-14.473,-14.4777,-14.5134,-14.495,-14.499,-14.4949,-14.5068,-14.5053,-14.5115,-14.5093,-14.5081,-14.5041,-14.5087,-14.5117,-14.5389,-14.5598,-14.5182,-14.5198,-14.6107,-14.613,-14.6151,-14.6511,0,0,0,0,0,0,-14.474,-14.4763,-14.514,-14.5148,-14.4823,-14.4926,-14.4939,-14.5043,-14.5083,-14.5076,-14.4968,-14.4942,-14.5097,-14.5118,-14.5142,-14.5597,-14.5157,-14.5174,-14.5184,-14.6125,-14.6143,-14.6159,0,0,0,0,0,0,-14.4737,-14.4772,-14.5144,-14.4989,-14.4979,-14.4905,-14.4917,-14.5134,-14.5086,-14.4955,-14.4935,-14.4956,-14.5059,-14.5121,-14.5139,-14.5482,-14.5138,-14.5154,-14.5165,-14.5172,-14.614,-14.6154,0,0,0,0,0,0,-14.475,-14.4779,-14.4986,-14.4979,-14.4969,-14.5058,-14.5094,-14.5311,-14.4957,-14.4956,-14.4923,-14.4907,-14.5066,-14.5082,-14.5138,-14.5474,-14.548,-14.5138,-14.5149,-14.5157,-14.5162,0,0,0,0,0,0,0,-14.476,-14.4584,-14.5089,-14.497,-14.4961,-14.5228,-14.523,-14.5232,-14.4954,-14.494,-14.4926,-14.4913,-14.5046,-14.5064,-14.5081,-14.5468,0,0,-14.5137,-14.5145,0,0,0,0,0,0,0,0,-14.4569,-14.458,-14.509,-14.5092,-14.5093,-14.5228,-14.523,-14.5232,-14.4952,-14.494,-14.4929,-14.4919,-14.5051,-14.5065,-14.5079,0,0,0,0,0,0,0,0,0,0,0,0,0,0,0,-14.509,-14.5091,0,-14.5228,-14.523,-14.5231,-14.495,-14.4941,-14.4932,-14.4923,-14.5055,-14.5066,-14.5078,0,0,0,0,0,0,0,0,0,0,0,0,0,0,0,0,0,0,0,0,0,0,0,0,0,0,0,0,0,0,0,0,0,0,0,0,0,0,0,0,0,0,0,0,0,0,0,0,0,0,0,0,0,0,0,0,0,0,0,0,0,0,0,0,0,0,0,0,0]}]]]